Tracking 29892 objects as of 21-Nov-2024
HD Live streaming from Space Station
objects crossing your sky now

CZ-6A DEB

Track CZ-6A DEB now!
10-day predictions


NORAD ID: 54955
Int'l Code: 2022-151SU
Perigee: 679.4 km
Apogee: 845.8 km
Inclination: 98.6 °
Period: 99.9 minutes
Semi major axis: 7133 km
RCS: Unknown
Launch date: November 11, 2022
Source: People's Republic of China (PRC)
Launch site: Taiyaun Space Center, China (TSC)

Note: This is SATELLITE DEBRIS
Your satellite tracking list
Your tracking list is empty




NASA's NSSDC Master Catalog

Two Line Element Set (TLE):
1 54955U 22151SU  24324.99992146  .00001817  00000-0  53667-3 0  9990
2 54955  98.6215 345.7883 0116593 250.9117 107.9416 14.40922859106064
Source of the keplerian elements: AFSPC